| time (UTC) | temp F | wind direction | speed MPH | gust MPH | rain 1hr in | rain 24hr in | rain mn in | humidity % | barometer mb |
| 20260506091542 | 44 | 331 | 0.0 | 0.0 | 0.00 | 0.21 | 0.04 | 92 | 1015.5 |
| 20260506090040 | 44 | 331 | 0.0 | 0.0 | 0.00 | 0.21 | 0.04 | 92 | 1015.2 |
| 20260506084538 | 44 | 331 | 0.0 | 0.0 | 0.00 | 0.21 | 0.04 | 92 | 1015.7 |
| 20260506083040 | 44 | 331 | 0.0 | 0.0 | 0.00 | 0.21 | 0.04 | 91 | 1015.9 |
| 20260506081536 | 44 | 331 | 0.0 | 2.0 | 0.01 | 0.21 | 0.04 | 91 | 1016.1 |
| 20260506073033 | 44 | 294 | 1.0 | 6.0 | 0.00 | 0.20 | 0.03 | 90 | 1015.6 |
| 20260506071535 | 44 | 32 | 0.0 | 0.0 | 0.00 | 0.20 | 0.03 | 90 | 1014.9 |
| 20260506061529 | 44 | 58 | 1.0 | 3.0 | 0.02 | 0.20 | 0.03 | 89 | 1014.7 |
| 20260506044521 | 44 | 65 | 4.0 | 6.0 | 0.02 | 0.16 | 0.16 | 88 | 1013.8 |
| 20260506043020 | 44 | 52 | 5.0 | 10.0 | 0.05 | 0.16 | 0.16 | 87 | 1013.5 |
| 20260506041519 | 44 | 53 | 4.0 | 9.0 | 0.05 | 0.16 | 0.16 | 87 | 1013.8 |
| 20260506040020 | 44 | 38 | 4.0 | 9.0 | 0.04 | 0.15 | 0.15 | 87 | 1013.6 |
| 20260506034517 | 44 | 56 | 7.0 | 12.0 | 0.04 | 0.14 | 0.14 | 85 | 1013.8 |
| 20260506033014 | 45 | 29 | 2.0 | 6.0 | 0.04 | 0.11 | 0.11 | 84 | 1013.3 |
| 20260506031513 | 45 | 62 | 6.0 | 15.0 | 0.06 | 0.11 | 0.11 | 81 | 1012.9 |
| 20260506030009 | 46 | 36 | 4.0 | 9.0 | 0.06 | 0.11 | 0.11 | 82 | 1012.7 |
| 20260506024508 | 47 | 42 | 0.0 | 2.0 | 0.05 | 0.10 | 0.10 | 85 | 1012.8 |
| 20260506023007 | 48 | 42 | 0.0 | 0.0 | 0.02 | 0.07 | 0.07 | 83 | 1012.5 |
| 20260506021506 | 48 | 42 | 0.0 | 2.0 | 0.00 | 0.05 | 0.05 | 79 | 1012.5 |
| 20260506020005 | 48 | 42 | 0.0 | 0.0 | 0.00 | 0.05 | 0.05 | 76 | 1012.5 |
| 20260506014507 | 48 | 42 | 0.0 | 0.0 | 0.00 | 0.05 | 0.05 | 78 | 1012.4 |
| 20260506013005 | 48 | 42 | 0.0 | 0.0 | 0.00 | 0.05 | 0.05 | 77 | 1012.3 |
| 20260506011502 | 49 | 42 | 0.0 | 0.0 | 0.00 | 0.05 | 0.05 | 77 | 1011.8 |
| 20260506010002 | 49 | 47 | 0.0 | 2.0 | 0.00 | 0.05 | 0.05 | 75 | 1011.2 |
| 20260506004502 | 49 | 45 | 1.0 | 9.0 | 0.00 | 0.05 | 0.05 | 76 | 1010.8 |
| 20260506003101 | 49 | 66 | 4.0 | 9.0 | 0.00 | 0.05 | 0.05 | 74 | 1010.6 |
| 20260506001608 | 49 | 60 | 7.0 | 11.0 | 0.00 | 0.05 | 0.05 | 69 | 1010.6 |
| 20260506000124 | 51 | 57 | 6.0 | 15.0 | 0.00 | 0.05 | 0.05 | 61 | 1010.5 |
| 20260505234616 | 52 | 80 | 4.0 | 11.0 | 0.00 | 0.05 | 0.05 | 60 | 1010.3 |
| 20260505233058 | 52 | 45 | 3.0 | 15.0 | 0.00 | 0.05 | 0.05 | 57 | 1010.3 |
| 20260505231600 | 52 | 54 | 9.0 | 14.0 | 0.00 | 0.05 | 0.05 | 57 | 1009.9 |
| 20260505230057 | 53 | 32 | 9.0 | 15.0 | 0.00 | 0.05 | 0.05 | 55 | 1009.7 |
| 20260505224557 | 53 | 49 | 6.0 | 19.0 | 0.00 | 0.05 | 0.05 | 56 | 1009.4 |
| 20260505223104 | 54 | 49 | 10.0 | 20.0 | 0.00 | 0.05 | 0.05 | 55 | 1009.8 |
| 20260505221600 | 54 | 67 | 10.0 | 19.0 | 0.00 | 0.05 | 0.05 | 55 | 1009.7 |
| 20260505220106 | 54 | 37 | 6.0 | 16.0 | 0.00 | 0.05 | 0.05 | 53 | 1009.7 |
| 20260505214605 | 55 | 63 | 9.0 | 22.0 | 0.00 | 0.05 | 0.05 | 52 | 1009.5 |
| 20260505213054 | 55 | 49 | 15.0 | 25.0 | 0.00 | 0.05 | 0.05 | 52 | 1009.6 |
| 20260505211631 | 56 | 72 | 12.0 | 27.0 | 0.00 | 0.05 | 0.05 | 52 | 1009.6 |
| 20260505210053 | 56 | 22 | 12.0 | 20.0 | 0.00 | 0.05 | 0.05 | 52 | 1009.7 |
| 20260505204603 | 56 | 73 | 11.0 | 24.0 | 0.00 | 0.05 | 0.05 | 51 | 1009.6 |
| 20260505203055 | 56 | 63 | 12.0 | 23.0 | 0.00 | 0.05 | 0.05 | 51 | 1009.9 |
| 20260505201553 | 56 | 59 | 13.0 | 21.0 | 0.00 | 0.05 | 0.05 | 53 | 1010.0 |
| 20260505200052 | 56 | 81 | 13.0 | 24.0 | 0.00 | 0.05 | 0.05 | 54 | 1009.7 |
| 20260505194551 | 55 | 71 | 14.0 | 23.0 | 0.00 | 0.05 | 0.05 | 56 | 1009.9 |
| 20260505193051 | 55 | 75 | 12.0 | 20.0 | 0.00 | 0.05 | 0.05 | 60 | 1009.4 |
| 20260505191550 | 55 | 59 | 16.0 | 25.0 | 0.00 | 0.05 | 0.05 | 60 | 1009.6 |
| 20260505190049 | 53 | 73 | 10.0 | 15.0 | 0.00 | 0.05 | 0.05 | 64 | 1009.7 |
| 20260505184549 | 53 | 25 | 10.0 | 19.0 | 0.00 | 0.05 | 0.05 | 67 | 1009.7 |
| 20260505183048 | 53 | 68 | 10.0 | 18.0 | 0.00 | 0.05 | 0.05 | 69 | 1009.8 |
| 20260505181615 | 52 | 75 | 11.0 | 16.0 | 0.00 | 0.05 | 0.05 | 70 | 1009.9 |
| 20260505174547 | 51 | 70 | 12.0 | 20.0 | 0.05 | 0.05 | 0.05 | 76 | 1009.9 |
| 20260505173046 | 50 | 76 | 9.0 | 18.0 | 0.05 | 0.05 | 0.05 | 85 | 1009.7 |
| 20260505171551 | 47 | 76 | 10.0 | 15.0 | 0.05 | 0.05 | 0.05 | 85 | 1010.1 |
| 20260505170043 | 48 | 57 | 8.0 | 19.0 | 0.00 | 0.00 | 0.00 | 78 | 1009.8 |
| 20260505164539 | 49 | 52 | 11.0 | 19.0 | 0.00 | 0.00 | 0.00 | 73 | 1009.6 |
| 20260505163035 | 50 | 51 | 15.0 | 27.0 | 0.00 | 0.00 | 0.00 | 65 | 1009.9 |
| 20260505161531 | 51 | 59 | 18.0 | 28.0 | 0.00 | 0.00 | 0.00 | 59 | 1009.5 |
| 20260505153036 | 52 | 65 | 15.0 | 25.0 | 0.00 | 0.00 | 0.00 | 55 | 1008.9 |
| 20260505151527 | 52 | 71 | 13.0 | 26.0 | 0.00 | 0.00 | 0.00 | 55 | 1008.4 |
| 20260505124511 | 52 | 47 | 14.0 | 27.0 | 0.00 | 0.00 | 0.00 | 50 | 1006.3 |
| 20260505123007 | 53 | 67 | 15.0 | 28.0 | 0.00 | 0.00 | 0.00 | 50 | 1006.1 |
| 20260505121506 | 53 | 63 | 15.0 | 25.0 | 0.00 | 0.00 | 0.00 | 50 | 1006.0 |
| 20260505120005 | 53 | 51 | 12.0 | 22.0 | 0.00 | 0.00 | 0.00 | 50 | 1005.5 |
| 20260505114503 | 53 | 65 | 14.0 | 24.0 | 0.00 | 0.00 | 0.00 | 50 | 1005.1 |
| 20260505113106 | 53 | 81 | 13.0 | 21.0 | 0.00 | 0.00 | 0.00 | 51 | 1005.4 |
| 20260505111603 | 53 | 53 | 15.0 | 26.0 | 0.00 | 0.00 | 0.00 | 50 | 1005.0 |
| 20260505110113 | 54 | 65 | 15.0 | 25.0 | 0.00 | 0.00 | 0.00 | 50 | 1004.5 |
| 20260505101601 | 54 | 62 | 13.0 | 26.0 | 0.00 | 0.00 | 0.00 | 50 | 1003.2 |
| 20260505100052 | 54 | 63 | 16.0 | 30.0 | 0.00 | 0.00 | 0.00 | 50 | 1003.1 |
| 20260505094550 | 55 | 47 | 20.0 | 31.0 | 0.00 | 0.00 | 0.00 | 49 | 1002.7 |
| 20260505093049 | 55 | 46 | 17.0 | 28.0 | 0.00 | 0.00 | 0.00 | 49 | 1002.6 |